Flag for Romania Weather past 2 weeks in Oradea, Romania


Light rain.

Feels Like: N/A
Forecast: 35 / 44 °F
Wind: 1 mph from North

Location: Oradea Airport

Current Time: Nov 29, 2015 at 6:20:28 AM

Latest Report: Nov 29, 2015 at 5:30 AM

Visibility: 2 mi

Pressure: 30.01 "Hg

Humidity: N/A

Dew point: N/A

Location of OradeaLocation

Historic Weather in Oradea — Graph


Oradea temperature yesterday

Maximum temperature yesterday: 41 °F (at 1:00 PM)
Minimum temperature yesterday: 37 °F (at 8:30 AM)
Average temperature yesterday: 39 °F

Past Weeks' High & Low Weather Summary

High61 °F (Nov 17, 2:00 PM)100% (Nov 21, 11:30 AM)30.33 "Hg (Nov 21, 11:30 AM)
Low34 °F (Nov 23, 8:30 PM)58% (Nov 14, 4:30 PM)29.27 "Hg (Nov 21, 10:00 PM)
Average46 °F84%29.92 "Hg
* Reported Nov 14 4:00 AM — Nov 29 4:30 AM, Oradea, Weather by CustomWeather, © 2015

Note: Actual official high and low records may vary slightly from our data, if they occured in-between our weather recording intervals... More about our weather records


Oradea weather history for previous 24 hours

Time TempWeatherWind HumidityBarometerVisibility
4:30 AM
Sun, Nov 29
N/ALight rain.3 mphN/A30.01 "Hg3 mi
4:00 AMN/ASprinkles.7 mphN/A29.98 "Hg2 mi
3:00 AMN/APartly cloudy.8 mphN/A29.98 "Hg2 mi
2:00 AMN/APassing clouds.9 mphN/A29.98 "Hg2 mi
1:00 AMN/APassing clouds.12 mphN/A29.95 "Hg2 mi
12:00 AMN/AFog.13 mphN/A29.95 "Hg2 mi
11:00 PM
Sat, Nov 28
N/AFog.14 mphN/A29.92 "Hg2 mi
10:30 PMN/AFog.12 mphN/A29.92 "Hg2 mi
10:00 PMN/AFog.13 mphN/A29.92 "Hg3 mi
9:30 PMN/AFog.13 mphN/A29.92 "Hg3 mi
9:00 PM37 °FFog.13 mph100%29.89 "Hg3 mi
8:30 PM37 °FLow clouds.12 mph100%29.89 "Hg5 mi
8:00 PM37 °FMostly cloudy.9 mph100%29.89 "Hg5 mi
7:30 PM39 °FOvercast.12 mph93%29.89 "Hg5 mi
7:00 PM39 °FLow clouds.12 mph93%29.89 "Hg6 mi
6:30 PM39 °FLow clouds.12 mph93%29.86 "Hg5 mi
6:00 PM39 °FPassing clouds.13 mph100%29.86 "Hg6 mi
5:30 PM41 °FLow clouds.13 mph93%29.83 "Hg5 mi
5:00 PM41 °FMostly cloudy.14 mph93%29.83 "Hg6 mi
4:30 PM41 °FPartly sunny.13 mph93%29.83 "HgN/A
4:00 PM41 °FLow clouds.14 mph93%29.83 "HgN/A
3:30 PM39 °FLow clouds.13 mph100%29.83 "HgN/A
3:00 PM39 °FLight rain. Low clouds.13 mph100%29.83 "Hg6 mi
2:30 PM39 °FLight rain. Partly sunny.13 mph100%29.83 "Hg5 mi
2:00 PM41 °FLow clouds.15 mph93%29.80 "HgN/A
1:30 PM41 °FPartly sunny.13 mph93%29.80 "HgN/A
1:00 PM41 °FMore clouds than sun.13 mph93%29.80 "Hg5 mi
12:30 PMN/ABroken clouds.14 mphN/A29.80 "Hg5 mi
12:00 PM39 °FFog.9 mph93%29.80 "Hg3 mi
11:30 AM39 °FFog.9 mph93%29.80 "Hg3 mi
11:00 AM39 °FFog.12 mph93%29.80 "Hg2 mi
10:30 AM39 °FFog.10 mph93%29.80 "Hg3 mi
10:00 AM39 °FFog.12 mph93%29.80 "Hg3 mi
9:30 AM39 °FBroken clouds.10 mph93%29.77 "Hg4 mi
8:30 AM37 °FPartly sunny.10 mph100%29.77 "Hg4 mi
8:00 AM39 °FLow clouds.8 mph93%29.77 "Hg4 mi
7:30 AM39 °FPassing clouds.7 mph100%29.74 "Hg4 mi
6:30 AMN/APassing clouds.8 mphN/A29.74 "Hg4 mi
6:00 AMN/AOvercast.7 mphN/A29.74 "Hg4 mi
Weather by CustomWeather, © 2015

See weather overviewHow to use our weather pages